Location: ???????
(55.3754°N, 39.3545°E)
Time: 21:54:40
(UTC+00:00)

Cosmos 1346 Rocket - Pass Details

Date: 14 April 2026
Orbit: 472 x 485 km, 81.2° (Epoch: 13 May)

Event Time Altitude Azimuth Distance (km) Brightness Sun altitude
Rises 18:33:07 0° 345° (NNW) 2,544 7.3 -16.0°
Reaches altitude 10° 18:35:14 10° 346° (NNW) 1,658 6.2 -16.2°
Maximum altitude 18:38:51 89° 68° (ENE) 483 2.4 -16.6°
Enters shadow 18:40:12 37° 166° (SSE) 758 3.1 -16.7°
